W7KKE-3 Weather Reports


Display with metric or nautical units.
time (UTC)temp
F
wind
direction
speed
MPH
gust
MPH
rain 1hr
in
rain 24hr
in
rain mn
in
humidity
%
barometer
mb
20150630164149 62 333 8.0 10.0 0.00 0.00 0.00 89 1020.3
20150630163649 62 331 6.0 9.0 0.00 0.00 0.00 90 1020.4
20150630163149 62 322 4.0 9.0 0.00 0.00 0.00 91 1020.4
20150630162650 61 337 3.0 8.0 0.00 0.00 0.00 91 1020.4
20150630162149 61 319 6.0 10.0 0.00 0.00 0.00 91 1020.4
20150630161650 61 323 5.0 10.0 0.00 0.00 0.00 91 1020.5
20150630161149 60 324 5.0 10.0 0.00 0.00 0.00 91 1020.5
20150630160651 60 294 5.0 10.0 0.00 0.00 0.00 92 1020.5
20150630160149 60 330 7.0 9.0 0.00 0.00 0.00 92 1020.5
20150630155650 60 326 3.0 9.0 0.00 0.00 0.00 92 1020.5
20150630155149 60 317 6.0 9.0 0.00 0.00 0.00 92 1020.5
20150630154649 60 323 5.0 8.0 0.00 0.00 0.00 92 1020.5
20150630154149 60 340 6.0 8.0 0.00 0.00 0.00 92 1020.5
20150630153649 60 338 4.0 8.0 0.00 0.00 0.00 92 1020.6
20150630153149 59 341 4.0 8.0 0.00 0.00 0.00 92 1020.6
20150630152649 59 322 5.0 7.0 0.00 0.00 0.00 92 1020.6
20150630152149 59 271 1.0 5.0 0.00 0.00 0.00 92 1020.5
20150630150149 59 323 2.0 9.0 0.00 0.00 0.00 92 1020.5
20150630145649 59 330 5.0 9.0 0.00 0.00 0.00 92 1020.6
20150630145149 59 331 7.0 7.0 0.00 0.00 0.00 92 1020.7
20150630144649 59 334 5.0 6.0 0.00 0.00 0.00 92 1020.6
20150630144149 59 0 0.0 0.0 0.00 0.00 0.00 92 1020.5
20150630143649 59 0 0.0 0.0 0.00 0.00 0.00 92 1020.5
20150630143150 59 0 0.0 0.0 0.00 0.00 0.00 92 1020.5
20150630142649 58 0 0.0 0.0 0.00 0.00 0.00 92 1020.3
20150630142149 58 0 0.0 0.0 0.00 0.00 0.00 92 1020.2
20150630141650 58 0 0.0 0.0 0.00 0.00 0.00 92 1020.0
20150630141149 58 0 0.0 0.0 0.00 0.00 0.00 91 1020.0
20150630140649 58 0 0.0 0.0 0.00 0.00 0.00 91 1020.0
20150630140149 59 0 0.0 0.0 0.00 0.00 0.00 91 1020.0
20150630135649 59 0 0.0 8.0 0.00 0.00 0.00 91 1020.1
20150630135149 59 326 0.0 8.0 0.00 0.00 0.00 91 1020.0
20150630134649 59 331 5.0 8.0 0.00 0.00 0.00 91 1020.0
20150630134149 59 0 2.0 2.0 0.00 0.00 0.00 91 1019.9
20150630132149 59 0 0.0 0.0 0.00 0.00 0.00 91 1019.6
20150630131649 59 0 0.0 0.0 0.00 0.00 0.00 91 1019.5
20150630131149 59 0 0.0 0.0 0.00 0.00 0.00 91 1019.4
20150630130649 59 0 0.0 0.0 0.00 0.00 0.00 91 1019.5
20150630130149 59 0 0.0 0.0 0.00 0.00 0.00 91 1019.5
20150630125649 59 0 0.0 0.0 0.00 0.00 0.00 91 1019.5
20150630125149 59 0 0.0 0.0 0.00 0.00 0.00 91 1019.4
20150630124649 59 0 0.0 0.0 0.00 0.00 0.00 91 1019.5
20150630124149 59 0 0.0 6.0 0.00 0.00 0.00 91 1019.4
20150630123649 59 334 0.0 6.0 0.00 0.00 0.00 91 1019.4
20150630123149 59 299 0.0 6.0 0.00 0.00 0.00 91 1019.4
20150630122649 59 0 1.0 1.0 0.00 0.00 0.00 91 1019.6
20150630122150 59 0 0.0 0.0 0.00 0.00 0.00 91 1019.5
20150630121649 59 0 0.0 0.0 0.00 0.00 0.00 91 1019.5
20150630121149 59 0 0.0 0.0 0.00 0.00 0.00 91 1019.5
20150630120650 59 0 0.0 0.0 0.00 0.00 0.00 91 1019.6
20150630120149 59 0 0.0 0.0 0.00 0.00 0.00 91 1019.7
20150630115649 59 0 0.0 0.0 0.00 0.00 0.00 91 1019.5
20150630115149 59 0 0.0 0.0 0.00 0.00 0.00 91 1019.5
20150630114649 59 0 0.0 0.0 0.00 0.00 0.00 91 1019.5
20150630114149 59 0 0.0 0.0 0.00 0.00 0.00 91 1019.7
20150630113649 59 0 0.0 0.0 0.00 0.00 0.00 91 1019.7
20150630113149 59 0 0.0 0.0 0.00 0.00 0.00 91 1019.6
20150630112649 59 0 0.0 0.0 0.00 0.00 0.00 91 1019.6
20150630112149 59 0 0.0 0.0 0.00 0.00 0.00 91 1019.5
20150630111649 59 295 0.0 12.0 0.00 0.00 0.00 91 1019.6
20150630110149 59 327 7.0 7.0 0.00 0.00 0.00 91 1019.7
20150630105649 59 340 3.0 10.0 0.00 0.00 0.00 91 1019.7
20150630105149 59 340 6.0 10.0 0.00 0.00 0.00 91 1019.7
20150630104649 59 330 2.0 10.0 0.00 0.00 0.00 91 1019.8
20150630104149 60 327 7.0 9.0 0.00 0.00 0.00 91 1019.8
20150630103649 59 320 5.0 9.0 0.00 0.00 0.00 91 1019.8
20150630103149 59 336 3.0 9.0 0.00 0.00 0.00 91 1019.7
20150630102649 59 330 6.0 9.0 0.00 0.00 0.00 91 1019.8
20150630102149 59 326 3.0 9.0 0.00 0.00 0.00 91 1019.8
20150630101649 59 345 1.0 9.0 0.00 0.00 0.00 91 1019.7
20150630101149 59 341 5.0 7.0 0.00 0.00 0.00 90 1019.7
20150630100649 59 326 1.0 7.0 0.00 0.00 0.00 90 1019.7
20150630100149 59 312 1.0 7.0 0.00 0.00 0.00 90 1019.7
20150630095649 59 334 4.0 7.0 0.00 0.00 0.00 90 1019.6
20150630095149 59 289 3.0 6.0 0.00 0.00 0.00 90 1019.6
20150630094649 59 331 0.0 6.0 0.00 0.00 0.00 90 1019.5
20150630094149 60 333 4.0 6.0 0.00 0.00 0.00 90 1019.5
20150630092149 60 308 0.0 6.0 0.00 0.00 0.00 90 1019.6
20150630091649 59 315 3.0 5.0 0.00 0.00 0.00 90 1019.6
20150630091149 60 0 0.0 0.0 0.00 0.00 0.00 90 1019.5
20150630090649 60 0 0.0 0.0 0.00 0.00 0.00 90 1019.5
20150630090149 59 0 0.0 0.0 0.00 0.00 0.00 90 1019.6
20150630085649 60 0 0.0 0.0 0.00 0.00 0.00 90 1019.5
20150630085149 60 0 0.0 0.0 0.00 0.00 0.00 90 1019.5
20150630084649 60 0 0.0 0.0 0.00 0.00 0.00 90 1019.5
20150630083149 60 0 0.0 0.0 0.00 0.00 0.00 89 1019.6
20150630082649 60 0 0.0 0.0 0.00 0.00 0.00 89 1019.6
20150630082149 60 0 0.0 0.0 0.00 0.00 0.00 89 1019.6
20150630081649 60 0 0.0 0.0 0.00 0.00 0.00 89 1019.7
20150630081149 60 0 0.0 0.0 0.00 0.00 0.00 89 1019.6
20150630080649 59 0 0.0 0.0 0.00 0.00 0.00 89 1019.6
20150630080149 60 0 0.0 0.0 0.00 0.00 0.00 89 1019.6
20150630074149 60 0 0.0 0.0 0.00 0.00 0.00 89 1019.5
20150630073649 60 0 0.0 0.0 0.00 0.00 0.00 89 1019.4
20150630073149 60 0 0.0 0.0 0.00 0.00 0.00 89 1019.4
20150630072649 60 0 0.0 0.0 0.00 0.00 0.00 89 1019.3
20150630072149 60 0 0.0 0.0 0.00 0.00 0.00 89 1019.3
20150630071650 60 0 0.0 0.0 0.00 0.00 0.00 89 1019.2
20150630071149 60 0 0.0 0.0 0.00 0.00 0.00 89 1019.2
20150630065649 61 0 0.0 0.0 0.00 0.00 0.00 89 1019.1
20150630065149 60 0 0.0 0.0 0.00 0.00 0.00 89 1019.1
20150630064649 60 0 0.0 0.0 0.00 0.00 0.00 89 1019.0
20150630064149 61 0 0.0 0.0 0.00 0.00 0.00 89 1019.0
20150630063649 61 0 0.0 0.0 0.00 0.00 0.00 89 1019.0
20150630063149 60 0 0.0 0.0 0.00 0.00 0.00 89 1019.0
20150630062649 61 0 0.0 0.0 0.00 0.00 0.00 89 1019.1
20150630062149 61 0 0.0 0.0 0.00 0.00 0.00 89 1019.1
20150630060150 61 0 0.0 0.0 0.00 0.00 0.00 88 1018.9
20150630055649 60 0 0.0 0.0 0.00 0.00 0.00 88 1019.0
20150630055150 61 0 0.0 0.0 0.00 0.00 0.00 88 1018.9
20150630054649 61 0 0.0 0.0 0.00 0.00 0.00 88 1019.0
20150630054149 61 0 0.0 0.0 0.00 0.00 0.00 88 1019.0
20150630052149 61 0 0.0 0.0 0.00 0.00 0.00 88 1018.8
20150630051649 61 0 0.0 0.0 0.00 0.00 0.00 88 1018.8
20150630051149 61 0 0.0 0.0 0.00 0.00 0.00 88 1018.8
20150630050649 61 0 0.0 0.0 0.00 0.00 0.00 88 1018.8
20150630050149 61 0 0.0 0.0 0.00 0.00 0.00 88 1018.7
20150630045649 61 0 0.0 0.0 0.00 0.00 0.00 88 1018.7
20150630045149 61 0 0.0 4.0 0.00 0.00 0.00 88 1018.7
20150630044649 61 0 0.0 4.0 0.00 0.00 0.00 88 1018.6
20150630044149 61 310 0.0 4.0 0.00 0.00 0.00 87 1018.6
20150630042149 61 0 0.0 0.0 0.00 0.00 0.00 87 1018.6
20150630041649 61 0 0.0 0.0 0.00 0.00 0.00 87 1018.7
20150630041149 61 0 0.0 0.0 0.00 0.00 0.00 87 1018.7
20150630040649 62 0 0.0 6.0 0.00 0.00 0.00 87 1018.7
20150630040149 62 159 0.0 6.0 0.00 0.00 0.00 87 1018.6
20150630034149 62 324 1.0 13.0 0.00 0.00 0.00 87 1018.8
20150630033649 62 343 4.0 13.0 0.00 0.00 0.00 87 1018.8
20150630033149 62 301 0.0 13.0 0.00 0.00 0.00 87 1018.9
20150630032649 62 309 7.0 11.0 0.00 0.00 0.00 87 1018.8
20150630032149 61 341 5.0 8.0 0.00 0.00 0.00 87 1018.9
20150630031649 61 327 0.0 7.0 0.00 0.00 0.00 87 1018.9
20150630031149 61 320 6.0 7.0 0.00 0.00 0.00 87 1018.8
20150630030649 61 287 4.0 7.0 0.00 0.00 0.00 87 1018.7
20150630030149 61 303 4.0 7.0 0.00 0.00 0.00 87 1018.7
20150630025649 61 337 5.0 11.0 0.00 0.00 0.00 87 1018.7
20150630024149 62 309 7.0 12.0 0.00 0.00 0.00 86 1018.7
20150630023649 62 315 7.0 12.0 0.00 0.00 0.00 86 1018.6
20150630023149 62 337 6.0 12.0 0.00 0.00 0.00 86 1018.6
20150630022649 62 327 6.0 11.0 0.00 0.00 0.00 86 1018.6
20150630022149 62 308 8.0 9.0 0.00 0.00 0.00 85 1018.6
20150630021649 62 319 7.0 9.0 0.00 0.00 0.00 85 1018.6
20150630021149 62 324 6.0 11.0 0.00 0.00 0.00 85 1018.7
20150630020649 62 299 6.0 11.0 0.00 0.00 0.00 84 1018.8
20150630020149 63 333 7.0 11.0 0.00 0.00 0.00 84 1018.8
20150630015649 63 331 8.0 10.0 0.00 0.00 0.00 83 1018.8
20150630015149 63 333 7.0 10.0 0.00 0.00 0.00 83 1018.9
20150630014649 63 317 7.0 10.0 0.00 0.00 0.00 83 1018.8
20150630014149 63 320 6.0 9.0 0.00 0.00 0.00 83 1018.8
20150630013649 64 310 7.0 9.0 0.00 0.00 0.00 83 1018.8
20150630013149 64 310 6.0 9.0 0.00 0.00 0.00 82 1018.8
20150630012649 64 301 6.0 9.0 0.00 0.00 0.00 82 1018.8
20150630012149 64 315 8.0 9.0 0.00 0.00 0.00 82 1018.9
20150630011649 64 331 7.0 10.0 0.00 0.00 0.00 82 1018.9
20150630011149 64 303 6.0 10.0 0.00 0.00 0.00 82 1018.9
20150630010649 64 289 6.0 10.0 0.00 0.00 0.00 82 1018.9
20150630010149 64 296 6.0 9.0 0.00 0.00 0.00 82 1018.9
20150630005649 64 294 8.0 9.0 0.00 0.00 0.00 82 1018.9
20150630005149 65 303 6.0 9.0 0.00 0.00 0.00 82 1018.9
20150630004649 65 324 6.0 9.0 0.00 0.00 0.00 82 1018.9
20150630004149 65 303 6.0 9.0 0.00 0.00 0.00 82 1019.0
20150630003649 65 305 7.0 9.0 0.00 0.00 0.00 82 1019.1
20150630003150 64 310 6.0 9.0 0.00 0.00 0.00 83 1019.1
20150630002649 64 305 6.0 8.0 0.00 0.00 0.00 83 1019.2
20150630002149 64 264 7.0 7.0 0.00 0.00 0.00 84 1019.3
20150630001649 64 282 4.0 7.0 0.00 0.00 0.00 85 1019.4
20150630001149 63 284 4.0 7.0 0.00 0.00 0.00 86 1019.6
20150630000649 63 0 4.0 4.0 0.00 0.00 0.00 86 1019.6
20150630000149 62 0 0.0 0.0 0.00 0.00 0.00 86 1019.6
20150629235649 62 0 0.0 0.0 0.00 0.00 0.00 87 1019.7
20150629235149 62 0 0.0 0.0 0.00 0.00 0.00 87 1019.6
20150629234649 61 0 0.0 0.0 0.00 0.00 0.00 87 1019.8
20150629234149 61 0 0.0 0.0 0.00 0.00 0.00 87 1019.9
20150629233649 61 0 0.0 0.0 0.00 0.00 0.00 87 1019.8
20150629233149 61 0 0.0 0.0 0.00 0.00 0.00 87 1019.9
20150629232649 61 0 0.0 0.0 0.00 0.00 0.00 87 1019.8
20150629232149 61 0 0.0 0.0 0.00 0.00 0.00 88 1019.8
20150629231649 60 0 0.0 6.0 0.00 0.00 0.00 88 1019.8
20150629231149 60 0 0.0 6.0 0.00 0.00 0.00 88 1019.8
20150629230649 60 229 0.0 6.0 0.00 0.00 0.00 88 1019.7
20150629230149 60 159 4.0 5.0 0.00 0.00 0.00 88 1019.6
20150629225649 60 238 0.0 8.0 0.00 0.00 0.00 88 1019.5
20150629225149 60 166 0.0 8.0 0.00 0.00 0.00 87 1019.5
20150629224649 60 135 0.0 8.0 0.00 0.00 0.00 87 1019.6
20150629224149 60 158 4.0 10.0 0.00 0.00 0.00 87 1019.6
20150629223648 60 166 0.0 10.0 0.00 0.00 0.00 87 1019.6
20150629223148 60 158 4.0 10.0 0.00 0.00 0.00 86 1019.6
20150629222648 60 170 5.0 9.0 0.00 0.00 0.00 86 1019.6
20150629222148 61 149 4.0 9.0 0.00 0.00 0.00 86 1019.6
20150629221648 61 161 3.0 7.0 0.00 0.00 0.00 86 1019.7
20150629221149 61 135 4.0 7.0 0.00 0.00 0.00 86 1019.7
20150629220648 61 231 1.0 5.0 0.00 0.00 0.00 87 1019.7
20150629220148 61 149 0.0 6.0 0.00 0.00 0.00 87 1019.7
20150629215648 61 210 3.0 6.0 0.00 0.00 0.00 87 1019.8
20150629215150 60 236 2.0 6.0 0.00 0.00 0.00 87 1019.8
20150629214648 60 133 2.0 5.0 0.00 0.00 0.00 87 1019.9
20150629214148 61 0 0.0 6.0 0.00 0.00 0.00 87 1019.9
20150629213649 61 228 0.0 6.0 0.00 0.00 0.00 87 1020.0
20150629213148 60 228 0.0 6.0 0.00 0.00 0.00 87 1020.0
20150629212648 60 0 0.0 0.0 0.00 0.00 0.00 87 1020.1
20150629212148 60 0 0.0 0.0 0.00 0.00 0.00 87 1020.2
20150629211648 60 0 0.0 0.0 0.00 0.00 0.00 87 1020.3
20150629211148 60 0 0.0 0.0 0.00 0.00 0.00 87 1020.3
20150629210648 60 0 0.0 6.0 0.00 0.00 0.00 87 1020.3
20150629210148 60 133 0.0 6.0 0.00 0.00 0.00 87 1020.3
20150629205648 60 166 0.0 6.0 0.00 0.00 0.00 87 1020.3
20150629205148 60 144 0.0 3.0 0.00 0.00 0.00 87 1020.3
20150629204648 60 0 1.0 1.0 0.00 0.00 0.00 86 1020.3
20150629204148 60 0 0.0 0.0 0.00 0.00 0.00 86 1020.4
20150629203648 60 0 0.0 5.0 0.00 0.00 0.00 86 1020.3
20150629203148 60 243 0.0 5.0 0.00 0.00 0.00 85 1020.2
20150629202648 60 257 0.0 5.0 0.00 0.00 0.00 85 1020.2
20150629202148 60 239 0.0 6.0 0.00 0.00 0.00 85 1020.1
20150629200648 61 253 1.0 7.0 0.00 0.00 0.00 83 1019.9
20150629200148 61 246 2.0 7.0 0.00 0.00 0.00 83 1019.8
20150629195648 62 221 2.0 7.0 0.00 0.00 0.00 83 1019.8
20150629195148 62 240 4.0 7.0 0.00 0.00 0.00 84 1019.8
20150629194648 61 236 0.0 7.0 0.00 0.00 0.00 83 1019.7
20150629194148 62 235 1.0 7.0 0.00 0.00 0.00 84 1019.7
20150629193648 61 175 4.0 6.0 0.00 0.00 0.00 83 1019.6
20150629193148 62 245 2.0 9.0 0.00 0.00 0.00 82 1019.6
20150629191148 62 158 4.0 10.0 0.00 0.00 0.00 83 1019.4
20150629190649 62 219 3.0 10.0 0.00 0.00 0.00 83 1019.5
20150629190148 62 155 2.0 10.0 0.00 0.00 0.00 83 1019.5
20150629185648 62 242 3.0 8.0 0.00 0.00 0.00 83 1019.5
20150629185148 62 154 2.0 6.0 0.00 0.00 0.00 83 1019.4
20150629184648 62 211 0.0 6.0 0.00 0.00 0.00 83 1019.3
20150629183148 62 0 0.0 0.0 0.00 0.00 0.00 83 1018.8
20150629182648 62 313 0.0 5.0 0.00 0.00 0.00 83 1018.6
20150629182148 62 0 1.0 5.0 0.00 0.00 0.00 83 1018.6
20150629181648 62 315 0.0 5.0 0.00 0.00 0.00 82 1018.6
20150629181148 63 0 0.0 0.0 0.00 0.00 0.00 82 1018.5
20150629180648 63 0 0.0 0.0 0.00 0.00 0.00 82 1018.5
20150629180148 64 0 0.0 0.0 0.00 0.00 0.00 81 1018.5
20150629175648 64 0 0.0 0.0 0.00 0.00 0.00 81 1018.2
20150629175148 65 0 0.0 0.0 0.00 0.00 0.00 80 1018.2
20150629173648 64 0 0.0 0.0 0.00 0.00 0.00 83 1018.1
20150629173148 64 0 0.0 0.0 0.00 0.00 0.00 85 1018.2
20150629172648 63 0 0.0 0.0 0.00 0.00 0.00 87 1018.4
20150629172148 62 0 0.0 6.0 0.00 0.00 0.00 89 1018.5
20150629171648 61 0 0.0 6.0 0.00 0.00 0.00 89 1018.6
20150629171148 61 235 0.0 6.0 0.00 0.00 0.00 90 1018.7
20150629170648 60 0 1.0 1.0 0.00 0.00 0.00 90 1018.7
20150629170148 60 0 0.0 4.0 0.00 0.00 0.00 91 1018.7
20150629165648 60 0 0.0 4.0 0.00 0.00 0.00 91 1018.8
20150629165148 60 250 0.0 4.0 0.00 0.00 0.00 91 1018.9
20150629164648 60 231 0.0 5.0 0.00 0.00 0.00 92 1019.0